Regional Weather Roundup
Issued by NWS

Home | Current Version | Previous Version | Text Only | Print | Product List | Glossary On
Versions: 1 2 3 4 5 6 7 8 9 10 11 12 13 14 15 16 17 18 19 20 21 22 23 24 25 26 27 28 29 30 31 32 33 34 35 36 37 38 39 40 41 42 43 44 45 46 47 48 49 50
000
ASUS45 KBOU 181907
RWRCO

WEATHER ROUNDUP FOR COLORADO
NATIONAL WEATHER SERVICE DENVER/BOULDER CO
1200 PM MST SAT FEB 18 2017

NOTE: "FAIR" INDICATES FEW OR NO CLOUDS BELOW 12000 FEET WITH NO
SIGNIFICANT WEATHER AND/OR OBSTRUCTIONS TO VISIBILITY.

COZ001>005-013-030-031-182000-
...NORTHWEST COLORADO...

CITY           SKY/WX    TMP DP  RH WIND       PRES   REMARKS
CRAIG          CLOUDY    47  31  53 NE7       29.78F
HAYDEN         FAIR      43  28  56 NE5       29.79F
MEEKER         PTSUNNY   52  30  43 S15G22    29.78F
MOUNT WERNER   NOT AVBL
STEAMBOAT SPGS PTSUNNY   39  32  76 CALM      29.80F
WALDEN           N/A     41  27  56 SE6       29.82F
$$

COZ006>008-011-182000-
...WEST CENTRAL VALLEYS...

CITY           SKY/WX    TMP DP  RH WIND       PRES   REMARKS
GRAND JUNCTION CLOUDY    48  39  71 NW15      29.78F
MONTROSE       FAIR      52  30  43 E13       29.79F
EAGLE          SUNNY     48  28  46 CALM      29.81F
RIFLE            N/A     52  33  48 CALM      29.76F
DELTA          PTSUNNY   55  40  56 E5        29.78F
NUCLA          FAIR      48  37  66 N9        29.83F
$$

COZ017>023-064>068-182000-
...SOUTHWEST COLORADO...

CITY           SKY/WX    TMP DP  RH WIND       PRES   REMARKS
DURANGO        PTSUNNY   46  34  62 E7        29.84F
CORTEZ         CLOUDY    51  32  48 SE9G20    29.79F
PAGOSA SPRINGS FAIR      44  26  49 CALM      29.87F
TELLURIDE      CLOUDY    44  20  38 CALM      29.84F
WOLF CREEK PAS FAIR      30  23  74 S14G21    30.00F WCI  20
$$

COZ009-010-012-014-032>034-037-058>063-182000-
...CENTRAL COLORADO...

CITY           SKY/WX    TMP DP  RH WIND       PRES   REMARKS
ASPEN          FAIR      44  27  51 N3        29.78F
BUENA VISTA    FAIR      43  26  50 CALM      29.86F
COPPER MTN     NOT AVBL
BERTHOUD PASS  PTSUNNY   27  18  69 SE18      29.95F WCI  13
COTTONWOOD PAS FAIR      41  25  52 E3        29.91F
GUNNISON       FAIR      33  25  72 E7        29.86F WCI  27
KREMMLING      FAIR      50  30  46 SE3       29.82F
LEADVILLE      FAIR      33  22  63 S10       29.86F WCI  25
MONARCH PASS   FAIR      30  23  74 E5        30.06F WCI  25
SALIDA         FAIR      49  27  41 CALM      29.92F
SUNLIGHT       NOT AVBL
WILKERSON PASS FAIR      36  21  55 S8        29.97F
$$

COZ069>075-182000-
...SAN LUIS VALLEY/SANGRE DE CRISTO MOUNTAINS...

CITY           SKY/WX    TMP DP  RH WIND       PRES   REMARKS
ALAMOSA        FAIR      45  29  53 VRB3      29.87F
LA VETA PASS   FAIR      45  27  49 NE10      29.93F
SAGUACHE       FAIR      45  28  53 S8        29.89F
$$

COZ035-036-038>040-182000-
...NORTHERN COLORADO FRONT RANGE...

CITY           SKY/WX    TMP DP  RH WIND       PRES   REMARKS
DENVER INTL AP PTSUNNY   60  22  23 SE5       29.74F
DMNS CITY PARK   N/A     62  21  20 E9        29.72F
AURORA         PTSUNNY   61  22  22 SE7       29.74F
FRONT RANGE AP PTSUNNY   63  21  20 E12       29.75F
ERIE MUNI ARPT FAIR      59  17  19 CALM      29.72F
BOULDER MUN AP FAIR      55  21  26 CALM      29.73F
CENTENNIAL     PTSUNNY   59  22  24 VRB5      29.74F
BROOMFIELD     PTSUNNY   59  21  23 E3        29.74F
FORT COLLINS   FAIR      54  20  26 CALM      29.73F
LONGMONT       FAIR      57  20  23 CALM      29.75F
$$

COZ041-046-047-076>085-087-088-182000-
...PIKES PEAK/PALMER DIVIDE AND SOUTHERN FOOTHILLS...

CITY           SKY/WX    TMP DP  RH WIND       PRES   REMARKS
COLO. SPRINGS  PTSUNNY   54  18  24 S14       29.80F
A. F. ACADEMY  FAIR      55  17  22 S13       29.78F
SCHRIEVER AFB  FAIR      53  20  27 S8G20     29.81F
ELLICOTT       FAIR     N/A N/A N/A SW7       29.79F
FALCON         FAIR      54  17  23 S15G25    29.82F
FORT CARSON    FAIR      55  20  25 S14       29.79F
LIMON          FAIR      58  22  24 S18G25    29.79F
MONUMENT HILL  FAIR      55  21  26 S13G23    29.80F
TRINIDAD       FAIR      59  20  22 VRB5      29.79F
$$

COZ042>045-048>051-090-091-182000-
...NORTHEAST COLORADO...

CITY           SKY/WX    TMP DP  RH WIND       PRES   REMARKS
GREELEY ARPT   FAIR      52  21  29 CALM      29.74F
AKRON          FAIR      62  21  20 S14G23    29.75F
BURLINGTON     FAIR      62  26  25 S16       29.79F
WRAY           NOT AVBL
STERLING       NOT AVBL
HOLYOKE        FAIR      61  30  31 S14       29.76F
FORT MORGAN    FAIR      54  18  24 SW3       29.75F
$$

COZ086-089-092>099-182000-
...SOUTHEAST COLORADO...

CITY           SKY/WX    TMP DP  RH WIND       PRES   REMARKS
PUEBLO         FAIR      55  24  30 CALM      29.77F
LA JUNTA       FAIR      55  24  30 CALM      29.79F
LAMAR          FAIR      52  27  38 VRB3      29.78F
SPRINGFIELD      N/A     60  21  22 S9        29.79F
$$



USA.gov is the U.S. government's official web portal to all federal, state and local government web resources and services.